OCS2110 SBRF-SBPA

Flight info

Callsign OCS2110
Flight time 3h 42m
Altitude 40000
Route UDOSA UZ21 VUNOX UZ38 VUKMO
Aircraft B77L/H-SDE1E2E3FGHIJ2J3J4J5M1RWXY/LB1D1

Departure

Time 2026-04-29 20:03
Airport Recife/Guararapes - Gilberto Freyre International Airport (SBRF)

Arrival

Time 2026-04-29 23:45
Airport Porto Alegre-Salgado Filho International Airport (SBPA)
Time Latitude Longitude Altitude Speed Heading
2026-04-29 19:44 -8.12957 -34.91997 46 ft 0 kts 72°
2026-04-29 19:53 -8.12961 -34.92010 46 ft 2 kts 84°
2026-04-29 19:53 -8.12961 -34.92024 46 ft 0 kts 97°
2026-04-29 19:54 -8.12961 -34.92025 46 ft 0 kts 97°
2026-04-29 19:57 -8.12961 -34.92024 46 ft 0 kts 96°
2026-04-29 19:57 -8.12956 -34.92017 46 ft 2 kts 50°
2026-04-29 19:57 -8.12878 -34.92051 46 ft 12 kts 314°
2026-04-29 19:57 -8.12811 -34.92109 46 ft 13 kts 328°
2026-04-29 19:58 -8.12728 -34.92144 26 ft 13 kts 344°
2026-04-29 19:58 -8.12638 -34.92171 46 ft 13 kts 343°
2026-04-29 19:58 -8.12548 -34.92198 46 ft 14 kts 343°
2026-04-29 19:58 -8.12439 -34.92235 46 ft 27 kts 340°
2026-04-29 19:59 -8.12273 -34.92291 46 ft 21 kts 342°
2026-04-29 19:59 -8.12137 -34.92337 45 ft 21 kts 341°
2026-04-29 19:59 -8.12000 -34.92381 45 ft 21 kts 341°
2026-04-29 19:59 -8.11863 -34.92426 45 ft 21 kts 342°
2026-04-29 20:00 -8.11727 -34.92470 45 ft 21 kts 342°
2026-04-29 20:00 -8.11621 -34.92506 45 ft 15 kts 334°
2026-04-29 20:00 -8.11535 -34.92574 45 ft 16 kts 321°
2026-04-29 20:00 -8.11451 -34.92645 45 ft 12 kts 319°
2026-04-29 20:01 -8.11443 -34.92701 45 ft 7 kts 216°
2026-04-29 20:01 -8.11484 -34.92696 45 ft 0 kts 162°
2026-04-29 20:01 -8.11490 -34.92694 45 ft 2 kts 162°
2026-04-29 20:01 -8.11506 -34.92689 45 ft 3 kts 162°
2026-04-29 20:02 -8.11545 -34.92676 45 ft 21 kts 162°
2026-04-29 20:02 -8.11987 -34.92530 45 ft 110 kts 162°
2026-04-29 20:02 -8.12945 -34.92214 66 ft 174 kts 162°
2026-04-29 20:02 -8.13731 -34.91947 429 ft 182 kts 161°
2026-04-29 20:03 -8.15410 -34.91360 1384 ft 198 kts 160°
2026-04-29 20:03 -8.16786 -34.91051 2061 ft 215 kts 181°
2026-04-29 20:03 -8.18244 -34.91658 2641 ft 242 kts 219°
2026-04-29 20:03 -8.19190 -34.93100 3498 ft 257 kts 244°
2026-04-29 20:04 -8.19809 -34.94826 4400 ft 265 kts 248°
2026-04-29 20:04 -8.20402 -34.96629 5219 ft 275 kts 248°
2026-04-29 20:04 -8.21002 -34.98481 5799 ft 279 kts 249°
2026-04-29 20:04 -8.21609 -35.00356 5923 ft 283 kts 248°
2026-04-29 20:05 -8.22224 -35.02238 5931 ft 282 kts 248°
2026-04-29 20:05 -8.22842 -35.04115 5908 ft 282 kts 248°
2026-04-29 20:05 -8.23465 -35.05996 5934 ft 283 kts 248°
2026-04-29 20:05 -8.24091 -35.07882 6358 ft 284 kts 248°
2026-04-29 20:06 -8.24726 -35.09783 7347 ft 287 kts 248°
2026-04-29 20:06 -8.25367 -35.11703 8333 ft 291 kts 248°
2026-04-29 20:06 -8.26020 -35.13659 9227 ft 298 kts 249°
2026-04-29 20:06 -8.26704 -35.15660 10105 ft 302 kts 245°
2026-04-29 20:07 -8.27763 -35.17486 10582 ft 317 kts 230°
2026-04-29 20:07 -8.29229 -35.19323 10813 ft 348 kts 228°
2026-04-29 20:07 -8.30847 -35.21270 11192 ft 372 kts 228°
2026-04-29 20:07 -8.32538 -35.23305 11997 ft 383 kts 228°
2026-04-29 20:08 -8.34259 -35.25395 12965 ft 390 kts 229°
2026-04-29 20:08 -8.35411 -35.26805 13608 ft 395 kts 229°
2026-04-29 20:08 -8.37731 -35.29667 14712 ft 405 kts 229°
2026-04-29 20:08 -8.39316 -35.31634 15451 ft 411 kts 229°
2026-04-29 20:09 -8.41132 -35.33895 16269 ft 418 kts 229°
2026-04-29 20:09 -8.42947 -35.36159 17058 ft 425 kts 229°
2026-04-29 20:09 -8.44826 -35.38505 17832 ft 433 kts 229°
2026-04-29 20:09 -8.46736 -35.40891 18529 ft 440 kts 229°
2026-04-29 20:10 -8.48672 -35.43309 19228 ft 445 kts 229°
2026-04-29 20:10 -8.50622 -35.45746 19986 ft 448 kts 229°
2026-04-29 20:10 -8.52591 -35.48206 20724 ft 452 kts 229°
2026-04-29 20:10 -8.54579 -35.50690 21419 ft 457 kts 229°
2026-04-29 20:11 -8.56586 -35.53198 22103 ft 462 kts 229°
2026-04-29 20:11 -8.58618 -35.55738 22790 ft 467 kts 229°
2026-04-29 20:11 -8.60666 -35.58298 23464 ft 471 kts 229°
2026-04-29 20:11 -8.62736 -35.60886 24033 ft 475 kts 229°
2026-04-29 20:12 -8.64819 -35.63492 24647 ft 477 kts 229°
2026-04-29 20:12 -8.66908 -35.66105 25282 ft 479 kts 229°
2026-04-29 20:12 -8.69004 -35.68728 25879 ft 481 kts 229°
2026-04-29 20:12 -8.71111 -35.71366 26457 ft 484 kts 229°
2026-04-29 20:13 -8.73235 -35.74024 27025 ft 487 kts 229°
2026-04-29 20:13 -8.74649 -35.75793 27424 ft 489 kts 229°
2026-04-29 20:13 -8.77518 -35.79386 28203 ft 493 kts 229°
2026-04-29 20:13 -8.79676 -35.82089 28778 ft 495 kts 229°
2026-04-29 20:14 -8.81845 -35.84805 29325 ft 498 kts 229°
2026-04-29 20:14 -8.83998 -35.87503 29863 ft 501 kts 229°
2026-04-29 20:14 -8.86191 -35.90251 30327 ft 504 kts 229°
2026-04-29 20:14 -8.88395 -35.93015 30756 ft 506 kts 229°
2026-04-29 20:15 -8.90608 -35.95789 31196 ft 507 kts 229°
2026-04-29 20:15 -8.92820 -35.98564 31721 ft 506 kts 229°
2026-04-29 20:15 -8.95018 -36.01323 32389 ft 501 kts 229°
2026-04-29 20:15 -8.97193 -36.04053 33114 ft 496 kts 229°
2026-04-29 20:16 -8.99353 -36.06763 33792 ft 493 kts 229°
2026-04-29 20:16 -9.01499 -36.09457 34349 ft 490 kts 229°
2026-04-29 20:16 -9.03617 -36.12108 34854 ft 488 kts 228°
2026-04-29 20:16 -9.05997 -36.14532 35304 ft 484 kts 217°
2026-04-29 20:17 -9.08705 -36.16523 35807 ft 481 kts 213°
2026-04-29 20:17 -9.11479 -36.18397 36309 ft 478 kts 212°
2026-04-29 20:17 -9.14264 -36.20244 36815 ft 476 kts 212°
2026-04-29 20:17 -9.17017 -36.22093 37309 ft 474 kts 213°
2026-04-29 20:18 -9.19739 -36.23957 37788 ft 472 kts 213°
2026-04-29 20:18 -9.22445 -36.25841 38001 ft 474 kts 213°
2026-04-29 20:18 -9.27850 -36.29658 37978 ft 473 kts 214°
2026-04-29 20:19 -9.33218 -36.33469 37983 ft 470 kts 214°
2026-04-29 20:19 -9.38573 -36.37264 37981 ft 469 kts 214°
2026-04-29 20:20 -9.43921 -36.41053 37978 ft 469 kts 214°
2026-04-29 20:20 -9.49269 -36.44842 37973 ft 469 kts 214°
2026-04-29 20:21 -9.54617 -36.48633 37969 ft 470 kts 214°
2026-04-29 20:21 -9.59938 -36.52407 37972 ft 470 kts 214°
2026-04-29 20:22 -9.65297 -36.56209 37971 ft 471 kts 214°
2026-04-29 20:22 -9.70661 -36.60021 37969 ft 471 kts 214°
2026-04-29 20:23 -9.76016 -36.63848 37972 ft 471 kts 214°
2026-04-29 20:23 -9.81375 -36.67683 37969 ft 472 kts 214°
2026-04-29 20:24 -9.86737 -36.71519 37967 ft 472 kts 214°
2026-04-29 20:24 -9.92102 -36.75357 37969 ft 472 kts 214°
2026-04-29 20:25 -9.97475 -36.79197 37967 ft 473 kts 214°
2026-04-29 20:25 -10.02850 -36.83039 37966 ft 473 kts 214°
2026-04-29 20:26 -10.08230 -36.86885 37969 ft 473 kts 214°
2026-04-29 20:26 -10.13611 -36.90737 37963 ft 474 kts 214°
2026-04-29 20:27 -10.18084 -36.93941 37970 ft 473 kts 214°
2026-04-29 20:27 -10.24374 -36.98448 37967 ft 473 kts 214°
2026-04-29 20:28 -10.29715 -37.02276 37970 ft 473 kts 214°
2026-04-29 20:28 -10.35093 -37.06131 38554 ft 470 kts 214°
2026-04-29 20:29 -10.37750 -37.08036 39039 ft 466 kts 214°
2026-04-29 20:29 -10.40400 -37.09936 39324 ft 467 kts 214°
2026-04-29 20:29 -10.43053 -37.11840 39616 ft 467 kts 214°
2026-04-29 20:29 -10.45703 -37.13742 39901 ft 466 kts 214°
2026-04-29 20:30 -10.51040 -37.17574 39975 ft 472 kts 214°
2026-04-29 20:30 -10.56451 -37.21460 39978 ft 474 kts 214°
2026-04-29 20:31 -10.61847 -37.25338 39971 ft 475 kts 214°
2026-04-29 20:31 -10.67228 -37.29207 39974 ft 473 kts 214°
2026-04-29 20:32 -10.72602 -37.33071 39972 ft 472 kts 214°
2026-04-29 20:32 -10.77067 -37.36283 39974 ft 474 kts 214°
2026-04-29 20:33 -10.83332 -37.40792 39975 ft 474 kts 214°
2026-04-29 20:33 -10.88695 -37.44655 39968 ft 471 kts 214°
2026-04-29 20:34 -10.93152 -37.47866 39967 ft 466 kts 214°
2026-04-29 20:34 -10.98413 -37.51659 39974 ft 462 kts 214°
2026-04-29 20:35 -11.03611 -37.55406 39977 ft 460 kts 214°
2026-04-29 20:35 -11.08832 -37.59172 39980 ft 461 kts 214°
2026-04-29 20:36 -11.14069 -37.62952 39982 ft 462 kts 214°
2026-04-29 20:36 -11.19327 -37.66748 39981 ft 464 kts 214°
2026-04-29 20:37 -11.24609 -37.70563 39984 ft 466 kts 214°
2026-04-29 20:37 -11.29908 -37.74394 39982 ft 468 kts 214°
2026-04-29 20:38 -11.35221 -37.78235 39986 ft 469 kts 214°
2026-04-29 20:38 -11.40546 -37.82088 39983 ft 469 kts 214°
2026-04-29 20:39 -11.45869 -37.85941 39982 ft 470 kts 214°
2026-04-29 20:39 -11.51194 -37.89805 39983 ft 469 kts 214°
2026-04-29 20:40 -11.56506 -37.93673 39982 ft 469 kts 214°
2026-04-29 20:40 -11.61811 -37.97538 39981 ft 468 kts 214°
2026-04-29 20:41 -11.67110 -38.01399 39985 ft 468 kts 214°
2026-04-29 20:41 -11.72366 -38.05230 39986 ft 467 kts 214°
2026-04-29 20:42 -11.77656 -38.09088 39987 ft 467 kts 214°
2026-04-29 20:42 -11.82936 -38.12940 39986 ft 466 kts 214°
2026-04-29 20:43 -11.88214 -38.16793 39992 ft 466 kts 214°
2026-04-29 20:43 -11.93491 -38.20647 40006 ft 466 kts 214°
2026-04-29 20:44 -11.98760 -38.24497 39988 ft 466 kts 214°
2026-04-29 20:44 -12.04033 -38.28351 39992 ft 466 kts 214°
2026-04-29 20:45 -12.09306 -38.32208 39988 ft 466 kts 214°
2026-04-29 20:45 -12.14576 -38.36064 39987 ft 466 kts 215°
2026-04-29 20:46 -12.19848 -38.39925 39991 ft 466 kts 215°
2026-04-29 20:46 -12.25116 -38.43783 39987 ft 466 kts 215°
2026-04-29 20:47 -12.30389 -38.47647 39987 ft 467 kts 215°
2026-04-29 20:47 -12.35632 -38.51491 39999 ft 467 kts 215°
2026-04-29 20:48 -12.40909 -38.55363 39987 ft 467 kts 215°
2026-04-29 20:48 -12.46189 -38.59239 39987 ft 467 kts 215°
2026-04-29 20:49 -12.51476 -38.63122 39985 ft 468 kts 215°
2026-04-29 20:49 -12.56763 -38.67007 39990 ft 468 kts 215°
2026-04-29 20:50 -12.62049 -38.70893 39999 ft 468 kts 215°
2026-04-29 20:50 -12.67341 -38.74786 40001 ft 468 kts 215°
2026-04-29 20:51 -12.72614 -38.78667 40008 ft 469 kts 215°
2026-04-29 20:51 -12.77901 -38.82560 39989 ft 469 kts 215°
2026-04-29 20:52 -12.83171 -38.86443 39990 ft 469 kts 215°
2026-04-29 20:52 -12.88451 -38.90339 39993 ft 470 kts 215°
2026-04-29 20:53 -12.93710 -38.94237 39994 ft 470 kts 215°
2026-04-29 20:53 -12.99000 -38.98166 40010 ft 470 kts 215°
2026-04-29 20:54 -13.06956 -39.04076 40006 ft 470 kts 215°
2026-04-29 20:55 -13.12257 -39.08015 40012 ft 471 kts 215°
2026-04-29 20:55 -13.17560 -39.11958 39999 ft 471 kts 215°
2026-04-29 20:56 -13.22864 -39.15904 40001 ft 471 kts 215°
2026-04-29 20:56 -13.28171 -39.19855 40016 ft 471 kts 215°
2026-04-29 20:57 -13.33485 -39.23813 40012 ft 472 kts 215°
2026-04-29 20:57 -13.38795 -39.27771 40015 ft 472 kts 215°
2026-04-29 20:58 -13.44109 -39.31733 40022 ft 472 kts 215°
2026-04-29 20:58 -13.49422 -39.35701 40010 ft 472 kts 215°
2026-04-29 20:59 -13.54738 -39.39679 40023 ft 473 kts 215°
2026-04-29 20:59 -13.60016 -39.43633 40029 ft 473 kts 215°
2026-04-29 21:00 -13.65333 -39.47619 40026 ft 473 kts 215°
2026-04-29 21:00 -13.70652 -39.51607 40017 ft 473 kts 215°
2026-04-29 21:01 -13.75971 -39.55598 40035 ft 473 kts 215°
2026-04-29 21:01 -13.81297 -39.59596 40036 ft 474 kts 215°
2026-04-29 21:02 -13.86620 -39.63593 40023 ft 474 kts 215°
2026-04-29 21:02 -13.91951 -39.67600 40030 ft 474 kts 215°
2026-04-29 21:03 -13.97281 -39.71608 40039 ft 474 kts 215°
2026-04-29 21:03 -14.02607 -39.75616 40030 ft 474 kts 215°
2026-04-29 21:04 -14.07931 -39.79625 40021 ft 474 kts 214°
2026-04-29 21:04 -14.13256 -39.83636 40025 ft 474 kts 214°
2026-04-29 21:05 -14.18580 -39.87649 40037 ft 474 kts 215°
2026-04-29 21:05 -14.23877 -39.91644 40038 ft 475 kts 215°
2026-04-29 21:06 -14.29207 -39.95666 40037 ft 475 kts 215°
2026-04-29 21:06 -14.34526 -39.99683 40032 ft 475 kts 215°
2026-04-29 21:07 -14.39804 -40.03671 40030 ft 475 kts 214°
2026-04-29 21:07 -14.45142 -40.07707 40044 ft 476 kts 214°
2026-04-29 21:08 -14.50474 -40.11741 40037 ft 476 kts 214°
2026-04-29 21:08 -14.55816 -40.15787 40050 ft 475 kts 214°
2026-04-29 21:09 -14.61151 -40.19827 40035 ft 476 kts 214°
2026-04-29 21:09 -14.66483 -40.23867 40050 ft 475 kts 214°
2026-04-29 21:10 -14.71817 -40.27911 40042 ft 475 kts 214°
2026-04-29 21:10 -14.77148 -40.31957 40052 ft 475 kts 215°
2026-04-29 21:11 -14.82479 -40.36007 40048 ft 475 kts 215°
2026-04-29 21:11 -14.87806 -40.40055 40037 ft 475 kts 215°
2026-04-29 21:12 -14.93129 -40.44104 40047 ft 475 kts 215°
2026-04-29 21:12 -14.98417 -40.48127 40046 ft 475 kts 215°
2026-04-29 21:13 -15.03737 -40.52176 40043 ft 475 kts 215°
2026-04-29 21:13 -15.09051 -40.56226 40041 ft 474 kts 215°
2026-04-29 21:14 -15.14365 -40.60278 40040 ft 474 kts 215°
2026-04-29 21:14 -15.19672 -40.64326 40038 ft 474 kts 215°
2026-04-29 21:15 -15.24970 -40.68370 40033 ft 473 kts 215°
2026-04-29 21:15 -15.30265 -40.72415 40032 ft 473 kts 215°
2026-04-29 21:16 -15.35553 -40.76457 40040 ft 472 kts 215°
2026-04-29 21:16 -15.40794 -40.80466 40048 ft 472 kts 215°
2026-04-29 21:17 -15.46068 -40.84502 40048 ft 471 kts 215°
2026-04-29 21:17 -15.51342 -40.88541 40050 ft 471 kts 215°
2026-04-29 21:18 -15.56607 -40.92576 40052 ft 470 kts 215°
2026-04-29 21:18 -15.61865 -40.96608 40046 ft 470 kts 216°
2026-04-29 21:19 -15.67123 -41.00643 40049 ft 470 kts 216°
2026-04-29 21:19 -15.72372 -41.04673 40047 ft 469 kts 216°
2026-04-29 21:20 -15.77621 -41.08706 40048 ft 469 kts 216°
2026-04-29 21:20 -15.82829 -41.12710 40051 ft 469 kts 216°
2026-04-29 21:21 -15.88075 -41.16747 40044 ft 469 kts 216°
2026-04-29 21:21 -15.93320 -41.20786 40049 ft 469 kts 216°
2026-04-29 21:22 -15.98562 -41.24824 40051 ft 469 kts 216°
2026-04-29 21:22 -16.03787 -41.28853 40050 ft 469 kts 216°
2026-04-29 21:23 -16.09028 -41.32899 40045 ft 469 kts 216°
2026-04-29 21:23 -16.14125 -41.36836 40040 ft 470 kts 216°
2026-04-29 21:24 -16.19367 -41.40889 40040 ft 470 kts 216°
2026-04-29 21:24 -16.24574 -41.44917 40038 ft 470 kts 216°
2026-04-29 21:25 -16.29814 -41.48974 40031 ft 469 kts 216°
2026-04-29 21:25 -16.35052 -41.53032 40024 ft 469 kts 216°
2026-04-29 21:26 -16.40285 -41.57088 40028 ft 469 kts 216°
2026-04-29 21:26 -16.45512 -41.61143 40029 ft 468 kts 216°
2026-04-29 21:27 -16.49853 -41.64513 40023 ft 468 kts 216°
2026-04-29 21:27 -16.55953 -41.69251 40026 ft 467 kts 216°
2026-04-29 21:28 -16.61127 -41.73273 40028 ft 467 kts 216°
2026-04-29 21:28 -16.66328 -41.77319 40030 ft 466 kts 216°
2026-04-29 21:29 -16.71521 -41.81362 40028 ft 466 kts 216°
2026-04-29 21:29 -16.76714 -41.85407 40028 ft 466 kts 216°
2026-04-29 21:30 -16.81899 -41.89450 40028 ft 465 kts 216°
2026-04-29 21:30 -16.87084 -41.93495 40025 ft 465 kts 216°
2026-04-29 21:31 -16.91392 -41.96856 40028 ft 465 kts 216°
2026-04-29 21:31 -16.97418 -42.01558 40028 ft 465 kts 216°
2026-04-29 21:32 -17.02597 -42.05603 40031 ft 465 kts 216°
2026-04-29 21:32 -17.06936 -42.08996 40027 ft 465 kts 216°
2026-04-29 21:33 -17.12080 -42.13021 40036 ft 465 kts 216°
2026-04-29 21:33 -17.17257 -42.17074 40041 ft 465 kts 216°
2026-04-29 21:34 -17.22433 -42.21129 40045 ft 465 kts 216°
2026-04-29 21:34 -17.27608 -42.25187 40045 ft 465 kts 216°
2026-04-29 21:35 -17.32774 -42.29240 40054 ft 464 kts 217°
2026-04-29 21:35 -17.37940 -42.33297 40053 ft 464 kts 217°
2026-04-29 21:36 -17.43104 -42.37355 40057 ft 464 kts 217°
2026-04-29 21:36 -17.48228 -42.41383 40057 ft 463 kts 217°
2026-04-29 21:37 -17.53383 -42.45439 40058 ft 463 kts 217°
2026-04-29 21:37 -17.58531 -42.49494 40060 ft 463 kts 217°
2026-04-29 21:38 -17.63679 -42.53551 40060 ft 463 kts 217°
2026-04-29 21:38 -17.68821 -42.57606 40062 ft 463 kts 217°
2026-04-29 21:39 -17.73964 -42.61665 40059 ft 463 kts 217°
2026-04-29 21:39 -17.79104 -42.65724 40062 ft 462 kts 217°
2026-04-29 21:40 -17.84207 -42.69757 40063 ft 462 kts 217°
2026-04-29 21:40 -17.89344 -42.73821 40061 ft 462 kts 217°
2026-04-29 21:41 -17.94477 -42.77884 40070 ft 462 kts 217°
2026-04-29 21:41 -17.99588 -42.81933 40067 ft 462 kts 218°
2026-04-29 21:42 -18.04713 -42.85995 40066 ft 461 kts 218°
2026-04-29 21:42 -18.09837 -42.90060 40066 ft 461 kts 218°
2026-04-29 21:43 -18.14953 -42.94122 40071 ft 461 kts 218°
2026-04-29 21:43 -18.20073 -42.98190 40069 ft 461 kts 218°
2026-04-29 21:44 -18.25159 -43.02235 40061 ft 461 kts 218°
2026-04-29 21:44 -18.30275 -43.06306 40072 ft 461 kts 218°
2026-04-29 21:45 -18.35387 -43.10378 40076 ft 461 kts 218°
2026-04-29 21:45 -18.40495 -43.14456 40077 ft 461 kts 218°
2026-04-29 21:46 -18.45573 -43.18568 40075 ft 461 kts 219°
2026-04-29 21:46 -18.50648 -43.22691 40080 ft 460 kts 219°
2026-04-29 21:47 -18.55692 -43.26784 40078 ft 460 kts 219°
2026-04-29 21:47 -18.60766 -43.30903 40084 ft 460 kts 219°
2026-04-29 21:48 -18.65851 -43.35007 40074 ft 460 kts 218°
2026-04-29 21:48 -18.70973 -43.39068 40082 ft 460 kts 218°
2026-04-29 21:49 -18.76092 -43.43129 40080 ft 460 kts 218°
2026-04-29 21:49 -18.81204 -43.47200 40078 ft 460 kts 218°
2026-04-29 21:50 -18.86314 -43.51273 40084 ft 460 kts 219°
2026-04-29 21:50 -18.91414 -43.55286 40081 ft 460 kts 218°
2026-04-29 21:51 -18.96608 -43.59255 40085 ft 460 kts 217°
2026-04-29 21:51 -19.04388 -43.65204 40084 ft 460 kts 218°
2026-04-29 21:52 -19.09567 -43.69186 40085 ft 461 kts 218°
2026-04-29 21:52 -19.14744 -43.73173 40078 ft 461 kts 218°
2026-04-29 21:53 -19.19933 -43.77171 40072 ft 461 kts 218°
2026-04-29 21:53 -19.25118 -43.81170 40068 ft 461 kts 218°
2026-04-29 21:54 -19.30296 -43.85166 40070 ft 461 kts 218°
2026-04-29 21:54 -19.35478 -43.89168 40079 ft 461 kts 218°
2026-04-29 21:55 -19.40618 -43.93142 40088 ft 461 kts 218°
2026-04-29 21:55 -19.45794 -43.97146 40077 ft 461 kts 218°
2026-04-29 21:56 -19.50964 -44.01151 40102 ft 460 kts 218°
2026-04-29 21:56 -19.56138 -44.05159 40100 ft 461 kts 218°
2026-04-29 21:57 -19.61343 -44.09132 40087 ft 461 kts 218°
2026-04-29 21:57 -19.66560 -44.13096 40096 ft 461 kts 218°
2026-04-29 21:58 -19.71735 -44.17049 40077 ft 461 kts 218°
2026-04-29 21:58 -19.76854 -44.21004 40077 ft 461 kts 219°
2026-04-29 21:59 -19.82030 -44.25016 40088 ft 461 kts 219°
2026-04-29 21:59 -19.87203 -44.29025 40072 ft 461 kts 219°
2026-04-29 22:00 -19.92381 -44.33039 40069 ft 460 kts 219°
2026-04-29 22:00 -19.97556 -44.37052 40072 ft 460 kts 219°
2026-04-29 22:01 -20.02720 -44.41062 40076 ft 460 kts 219°
2026-04-29 22:01 -20.07887 -44.45077 40076 ft 459 kts 219°
2026-04-29 22:02 -20.13041 -44.49085 40074 ft 459 kts 219°
2026-04-29 22:02 -20.18198 -44.53093 40079 ft 459 kts 219°
2026-04-29 22:03 -20.23352 -44.57098 40072 ft 458 kts 219°
2026-04-29 22:03 -20.28502 -44.61107 40076 ft 458 kts 219°
2026-04-29 22:04 -20.33651 -44.65118 40075 ft 458 kts 219°
2026-04-29 22:04 -20.38792 -44.69128 40075 ft 458 kts 219°
2026-04-29 22:05 -20.43933 -44.73140 40070 ft 458 kts 219°
2026-04-29 22:06 -20.51644 -44.79164 40072 ft 458 kts 220°
2026-04-29 22:06 -20.56779 -44.83181 40073 ft 458 kts 220°
2026-04-29 22:07 -20.61909 -44.87199 40073 ft 457 kts 220°
2026-04-29 22:07 -20.67028 -44.91213 40076 ft 457 kts 220°
2026-04-29 22:08 -20.72149 -44.95231 40061 ft 456 kts 220°
2026-04-29 22:08 -20.77264 -44.99245 40074 ft 456 kts 220°
2026-04-29 22:09 -20.82373 -45.03254 40067 ft 456 kts 220°
2026-04-29 22:09 -20.87479 -45.07266 40065 ft 455 kts 220°
2026-04-29 22:10 -20.92580 -45.11276 40059 ft 455 kts 220°
2026-04-29 22:10 -20.97673 -45.15281 40058 ft 454 kts 220°
2026-04-29 22:11 -21.02761 -45.19287 40060 ft 454 kts 220°
2026-04-29 22:11 -21.07848 -45.23296 40056 ft 454 kts 220°
2026-04-29 22:12 -21.12927 -45.27302 40053 ft 453 kts 220°
2026-04-29 22:12 -21.18002 -45.31309 40049 ft 453 kts 221°
2026-04-29 22:13 -21.23069 -45.35313 40057 ft 453 kts 221°
2026-04-29 22:13 -21.28139 -45.39324 40058 ft 453 kts 221°
2026-04-29 22:14 -21.33210 -45.43338 40054 ft 453 kts 221°
2026-04-29 22:14 -21.38247 -45.47329 40056 ft 453 kts 221°
2026-04-29 22:15 -21.43315 -45.51349 40055 ft 453 kts 221°
2026-04-29 22:15 -21.48376 -45.55367 40059 ft 453 kts 221°
2026-04-29 22:16 -21.53452 -45.59379 40054 ft 453 kts 221°
2026-04-29 22:16 -21.58544 -45.63371 40058 ft 453 kts 221°
2026-04-29 22:17 -21.63640 -45.67371 40060 ft 453 kts 221°
2026-04-29 22:17 -21.68725 -45.71371 40061 ft 453 kts 221°
2026-04-29 22:18 -21.73808 -45.75375 40068 ft 453 kts 221°
2026-04-29 22:18 -21.78884 -45.79378 40068 ft 452 kts 221°
2026-04-29 22:19 -21.83931 -45.83362 40075 ft 452 kts 221°
2026-04-29 22:19 -21.88910 -45.87296 40077 ft 452 kts 221°
2026-04-29 22:20 -21.93981 -45.91305 40078 ft 452 kts 221°
2026-04-29 22:20 -21.99048 -45.95316 40078 ft 452 kts 221°
2026-04-29 22:21 -22.04100 -45.99317 40085 ft 451 kts 221°
2026-04-29 22:21 -22.09148 -46.03321 40098 ft 451 kts 221°
2026-04-29 22:22 -22.14159 -46.07297 40087 ft 451 kts 222°
2026-04-29 22:22 -22.19220 -46.11314 40098 ft 451 kts 221°
2026-04-29 22:23 -22.24280 -46.15326 40101 ft 451 kts 222°
2026-04-29 22:23 -22.29333 -46.19332 40097 ft 451 kts 221°
2026-04-29 22:24 -22.34740 -46.22773 40093 ft 459 kts 210°
2026-04-29 22:24 -22.40602 -46.25532 40100 ft 460 kts 209°
2026-04-29 22:25 -22.46485 -46.28255 40096 ft 460 kts 209°
2026-04-29 22:25 -22.52359 -46.31009 40098 ft 460 kts 210°
2026-04-29 22:26 -22.58223 -46.33782 40098 ft 460 kts 210°
2026-04-29 22:26 -22.64091 -46.36564 40089 ft 461 kts 210°
2026-04-29 22:27 -22.68975 -46.38881 40086 ft 461 kts 210°
2026-04-29 22:27 -22.74847 -46.41669 40089 ft 461 kts 210°
2026-04-29 22:28 -22.80712 -46.44456 40090 ft 460 kts 210°
2026-04-29 22:28 -22.86580 -46.47245 40084 ft 461 kts 210°
2026-04-29 22:29 -22.92461 -46.50046 40071 ft 462 kts 210°
2026-04-29 22:29 -22.98363 -46.52858 40071 ft 464 kts 210°
2026-04-29 22:30 -23.04276 -46.55678 40072 ft 465 kts 210°
2026-04-29 22:30 -23.10164 -46.58488 40070 ft 466 kts 210°
2026-04-29 22:31 -23.16062 -46.61306 40083 ft 466 kts 210°
2026-04-29 22:31 -23.22000 -46.64146 40091 ft 466 kts 211°
2026-04-29 22:32 -23.27370 -46.66717 40107 ft 465 kts 211°
2026-04-29 22:32 -23.33293 -46.69557 40117 ft 465 kts 211°
2026-04-29 22:33 -23.39213 -46.72398 40138 ft 465 kts 211°
2026-04-29 22:33 -23.45119 -46.75238 40150 ft 464 kts 211°
2026-04-29 22:34 -23.51014 -46.78075 40142 ft 463 kts 211°
2026-04-29 22:34 -23.56897 -46.80904 40157 ft 462 kts 211°
2026-04-29 22:35 -23.62728 -46.83687 40152 ft 461 kts 211°
2026-04-29 22:35 -23.68595 -46.86490 40138 ft 460 kts 211°
2026-04-29 22:36 -23.74458 -46.89297 40127 ft 460 kts 211°
2026-04-29 22:36 -23.80258 -46.92098 40106 ft 460 kts 211°
2026-04-29 22:37 -23.86106 -46.94929 40071 ft 460 kts 211°
2026-04-29 22:37 -23.91957 -46.97763 40073 ft 460 kts 211°
2026-04-29 22:38 -23.97815 -47.00603 40072 ft 462 kts 211°
2026-04-29 22:38 -24.03220 -47.03229 40079 ft 471 kts 211°
2026-04-29 22:39 -24.09243 -47.06153 40065 ft 474 kts 211°
2026-04-29 22:39 -24.15282 -47.09083 40054 ft 474 kts 211°
2026-04-29 22:40 -24.21309 -47.12017 40045 ft 473 kts 211°
2026-04-29 22:40 -24.27241 -47.15073 40056 ft 466 kts 217°
2026-04-29 22:41 -24.32699 -47.18802 40047 ft 461 kts 220°
2026-04-29 22:41 -24.38047 -47.22580 40014 ft 460 kts 220°
2026-04-29 22:42 -24.43417 -47.26349 40048 ft 458 kts 220°
2026-04-29 22:42 -24.48799 -47.30103 40040 ft 458 kts 220°
2026-04-29 22:43 -24.54183 -47.33853 40035 ft 458 kts 220°
2026-04-29 22:43 -24.59567 -47.37608 40033 ft 458 kts 220°
2026-04-29 22:44 -24.64951 -47.41367 40036 ft 459 kts 220°
2026-04-29 22:44 -24.70342 -47.45135 40035 ft 459 kts 220°
2026-04-29 22:45 -24.75729 -47.48905 40034 ft 459 kts 220°
2026-04-29 22:45 -24.81076 -47.52649 40031 ft 459 kts 220°
2026-04-29 22:46 -24.86455 -47.56421 40036 ft 458 kts 221°
2026-04-29 22:46 -24.91827 -47.60191 40029 ft 458 kts 221°
2026-04-29 22:47 -24.97191 -47.63960 40031 ft 457 kts 221°
2026-04-29 22:47 -25.02547 -47.67727 40038 ft 456 kts 221°
2026-04-29 22:48 -25.07890 -47.71489 40041 ft 456 kts 221°
2026-04-29 22:48 -25.13191 -47.75226 40040 ft 455 kts 221°
2026-04-29 22:49 -25.18520 -47.78987 40044 ft 454 kts 221°
2026-04-29 22:49 -25.23839 -47.82745 40043 ft 454 kts 221°
2026-04-29 22:50 -25.29150 -47.86501 40043 ft 453 kts 222°
2026-04-29 22:50 -25.34448 -47.90257 40050 ft 452 kts 222°
2026-04-29 22:51 -25.39735 -47.94024 40040 ft 452 kts 222°
2026-04-29 22:51 -25.47636 -47.99659 40043 ft 452 kts 222°
2026-04-29 22:52 -25.52889 -48.03410 40043 ft 451 kts 222°
2026-04-29 22:52 -25.58162 -48.07180 40042 ft 451 kts 222°
2026-04-29 22:53 -25.63437 -48.10953 40043 ft 451 kts 222°
2026-04-29 22:53 -25.68720 -48.14707 40044 ft 451 kts 222°
2026-04-29 22:54 -25.74014 -48.18462 40043 ft 451 kts 222°
2026-04-29 22:54 -25.79265 -48.22194 40042 ft 451 kts 223°
2026-04-29 22:55 -25.84551 -48.25957 40046 ft 451 kts 223°
2026-04-29 22:55 -25.89836 -48.29726 40037 ft 451 kts 223°
2026-04-29 22:56 -25.95121 -48.33498 40043 ft 451 kts 223°
2026-04-29 22:56 -26.00410 -48.37277 40045 ft 452 kts 223°
2026-04-29 22:57 -26.05693 -48.41055 40046 ft 452 kts 223°
2026-04-29 22:57 -26.10973 -48.44836 40044 ft 452 kts 223°
2026-04-29 22:58 -26.16253 -48.48621 40037 ft 452 kts 223°
2026-04-29 22:58 -26.21537 -48.52414 40031 ft 451 kts 223°
2026-04-29 22:59 -26.26814 -48.56205 40027 ft 451 kts 223°
2026-04-29 22:59 -26.32056 -48.59986 40020 ft 451 kts 223°
2026-04-29 23:00 -26.37321 -48.63799 40026 ft 451 kts 223°
2026-04-29 23:00 -26.42558 -48.67595 40034 ft 451 kts 224°
2026-04-29 23:01 -26.47824 -48.71415 40041 ft 451 kts 224°
2026-04-29 23:01 -26.53031 -48.75228 40052 ft 450 kts 224°
2026-04-29 23:02 -26.58263 -48.79072 40063 ft 450 kts 224°
2026-04-29 23:02 -26.63369 -48.82823 40065 ft 450 kts 224°
2026-04-29 23:03 -26.68625 -48.86682 40050 ft 451 kts 224°
2026-04-29 23:03 -26.73371 -48.90149 40037 ft 451 kts 224°
2026-04-29 23:04 -26.78004 -48.93530 40061 ft 451 kts 224°
2026-04-29 23:04 -26.83258 -48.97371 40051 ft 449 kts 224°
2026-04-29 23:05 -26.88483 -49.01197 40059 ft 449 kts 224°
2026-04-29 23:05 -26.93706 -49.05031 40072 ft 449 kts 224°
2026-04-29 23:06 -26.98936 -49.08875 40062 ft 450 kts 224°
2026-04-29 23:06 -27.04172 -49.12722 40071 ft 450 kts 225°
2026-04-29 23:07 -27.09414 -49.16582 40079 ft 451 kts 224°
2026-04-29 23:07 -27.14650 -49.20439 40083 ft 450 kts 225°
2026-04-29 23:08 -27.19886 -49.24303 40081 ft 451 kts 225°
2026-04-29 23:08 -27.25124 -49.28171 40067 ft 450 kts 225°
2026-04-29 23:09 -27.30311 -49.32006 40081 ft 450 kts 225°
2026-04-29 23:09 -27.35538 -49.35876 40088 ft 449 kts 225°
2026-04-29 23:10 -27.40754 -49.39743 40083 ft 449 kts 225°
2026-04-29 23:10 -27.45964 -49.43610 40082 ft 448 kts 225°
2026-04-29 23:11 -27.50334 -49.46856 40086 ft 448 kts 225°
2026-04-29 23:11 -27.55540 -49.50727 40088 ft 448 kts 225°
2026-04-29 23:12 -27.60758 -49.54591 40093 ft 449 kts 225°
2026-04-29 23:12 -27.65977 -49.58451 40093 ft 449 kts 225°
2026-04-29 23:13 -27.71190 -49.62316 40102 ft 449 kts 225°
2026-04-29 23:13 -27.76427 -49.66180 40096 ft 450 kts 224°
2026-04-29 23:14 -27.81733 -49.69962 40095 ft 451 kts 224°
2026-04-29 23:14 -27.87055 -49.73732 40091 ft 451 kts 224°
2026-04-29 23:15 -27.92362 -49.77511 40108 ft 451 kts 224°
2026-04-29 23:15 -27.97670 -49.81306 40099 ft 452 kts 224°
2026-04-29 23:16 -28.02994 -49.85122 40100 ft 453 kts 224°
2026-04-29 23:16 -28.08317 -49.88937 40105 ft 453 kts 224°
2026-04-29 23:17 -28.13597 -49.92726 40101 ft 452 kts 224°
2026-04-29 23:17 -28.18907 -49.96542 40098 ft 451 kts 225°
2026-04-29 23:18 -28.24205 -50.00356 40098 ft 451 kts 225°
2026-04-29 23:18 -28.29492 -50.04164 40100 ft 450 kts 225°
2026-04-29 23:19 -28.34761 -50.07963 40089 ft 449 kts 225°
2026-04-29 23:19 -28.39997 -50.11745 40094 ft 448 kts 225°
2026-04-29 23:20 -28.45217 -50.15509 40038 ft 440 kts 225°
2026-04-29 23:20 -28.50342 -50.19223 40089 ft 433 kts 225°
2026-04-29 23:21 -28.52862 -50.21048 39851 ft 427 kts 225°
2026-04-29 23:21 -28.55363 -50.22860 39303 ft 426 kts 226°
2026-04-29 23:21 -28.57857 -50.24672 38658 ft 426 kts 226°
2026-04-29 23:21 -28.60354 -50.26490 37887 ft 427 kts 226°
2026-04-29 23:22 -28.62856 -50.28311 37146 ft 428 kts 225°
2026-04-29 23:22 -28.65370 -50.30141 36392 ft 429 kts 225°
2026-04-29 23:22 -28.67892 -50.31976 35609 ft 432 kts 225°
2026-04-29 23:22 -28.70433 -50.33825 34897 ft 434 kts 225°
2026-04-29 23:23 -28.72965 -50.35675 34276 ft 431 kts 223°
2026-04-29 23:23 -28.74574 -50.36927 33845 ft 427 kts 227°
2026-04-29 23:23 -28.76953 -50.38924 33169 ft 423 kts 229°
2026-04-29 23:23 -28.79259 -50.40933 32598 ft 419 kts 229°
2026-04-29 23:24 -28.81310 -50.42731 32028 ft 416 kts 229°
2026-04-29 23:24 -28.83605 -50.44729 31484 ft 412 kts 229°
2026-04-29 23:24 -28.85878 -50.46697 30926 ft 410 kts 229°
2026-04-29 23:24 -28.88149 -50.48653 30362 ft 408 kts 229°
2026-04-29 23:25 -28.90413 -50.50595 29722 ft 406 kts 229°
2026-04-29 23:25 -28.92665 -50.52525 29085 ft 404 kts 228°
2026-04-29 23:25 -28.94913 -50.54450 28502 ft 402 kts 228°
2026-04-29 23:25 -28.96922 -50.56169 27977 ft 400 kts 228°
2026-04-29 23:26 -28.98943 -50.57900 27460 ft 397 kts 228°
2026-04-29 23:26 -29.01147 -50.59790 26906 ft 395 kts 227°
2026-04-29 23:26 -29.03332 -50.61665 26365 ft 392 kts 227°
2026-04-29 23:26 -29.05509 -50.63536 25827 ft 390 kts 227°
2026-04-29 23:27 -29.07670 -50.65393 25285 ft 388 kts 227°
2026-04-29 23:27 -29.09815 -50.67236 24757 ft 385 kts 227°
2026-04-29 23:27 -29.11954 -50.69078 24222 ft 384 kts 227°
2026-04-29 23:27 -29.13912 -50.71080 23664 ft 372 kts 234°
2026-04-29 23:28 -29.15665 -50.73177 23052 ft 365 kts 236°
2026-04-29 23:28 -29.17304 -50.75365 22518 ft 360 kts 238°
2026-04-29 23:28 -29.18889 -50.77572 22019 ft 357 kts 238°
2026-04-29 23:28 -29.20471 -50.79750 21511 ft 355 kts 237°
2026-04-29 23:29 -29.22063 -50.81896 21008 ft 353 kts 236°
2026-04-29 23:29 -29.23664 -50.84021 20515 ft 351 kts 236°
2026-04-29 23:29 -29.25267 -50.86127 20020 ft 351 kts 235°
2026-04-29 23:29 -29.26875 -50.88227 19528 ft 351 kts 234°
2026-04-29 23:30 -29.28485 -50.90327 19028 ft 351 kts 234°
2026-04-29 23:30 -29.30095 -50.92426 18526 ft 351 kts 234°
2026-04-29 23:30 -29.31710 -50.94534 17975 ft 352 kts 234°
2026-04-29 23:30 -29.33305 -50.96616 17434 ft 350 kts 233°
2026-04-29 23:31 -29.34907 -50.98704 16904 ft 348 kts 233°
2026-04-29 23:31 -29.36472 -51.00749 16441 ft 344 kts 233°
2026-04-29 23:31 -29.38070 -51.02840 15916 ft 343 kts 233°
2026-04-29 23:31 -29.39648 -51.04892 15428 ft 342 kts 232°
2026-04-29 23:32 -29.41203 -51.06908 14947 ft 342 kts 232°
2026-04-29 23:32 -29.42792 -51.08967 14456 ft 341 kts 232°
2026-04-29 23:32 -29.44347 -51.10983 13929 ft 341 kts 232°
2026-04-29 23:32 -29.45916 -51.13019 13400 ft 341 kts 232°
2026-04-29 23:33 -29.47484 -51.15055 12867 ft 340 kts 232°
2026-04-29 23:33 -29.49049 -51.17090 12379 ft 339 kts 231°
2026-04-29 23:33 -29.50608 -51.19118 11870 ft 338 kts 231°
2026-04-29 23:33 -29.52153 -51.21129 11432 ft 335 kts 231°
2026-04-29 23:34 -29.53691 -51.23131 10996 ft 333 kts 231°
2026-04-29 23:34 -29.55219 -51.25122 10513 ft 332 kts 231°
2026-04-29 23:34 -29.56737 -51.27100 10184 ft 324 kts 230°
2026-04-29 23:34 -29.58193 -51.28996 10059 ft 308 kts 230°
2026-04-29 23:35 -29.59567 -51.30787 10051 ft 289 kts 230°
2026-04-29 23:35 -29.60856 -51.32468 10042 ft 273 kts 230°
2026-04-29 23:35 -29.62107 -51.34044 10031 ft 266 kts 224°
2026-04-29 23:35 -29.63722 -51.35122 10058 ft 272 kts 201°
2026-04-29 23:36 -29.65535 -51.35769 10068 ft 274 kts 200°
2026-04-29 23:36 -29.67359 -51.36428 10062 ft 275 kts 200°
2026-04-29 23:36 -29.69166 -51.37089 10052 ft 270 kts 200°
2026-04-29 23:36 -29.70945 -51.37744 10020 ft 267 kts 200°
2026-04-29 23:37 -29.72736 -51.38297 9769 ft 266 kts 193°
2026-04-29 23:37 -29.74617 -51.38635 9726 ft 286 kts 191°
2026-04-29 23:37 -29.76555 -51.38940 9600 ft 272 kts 191°
2026-04-29 23:37 -29.78360 -51.39227 9037 ft 260 kts 191°
2026-04-29 23:38 -29.80114 -51.39518 8398 ft 250 kts 191°
2026-04-29 23:38 -29.81802 -51.39808 7777 ft 241 kts 192°
2026-04-29 23:38 -29.83432 -51.40094 7172 ft 234 kts 192°
2026-04-29 23:38 -29.85030 -51.40377 6557 ft 229 kts 192°
2026-04-29 23:39 -29.86598 -51.40656 5936 ft 227 kts 192°
2026-04-29 23:39 -29.88144 -51.40931 5361 ft 222 kts 191°
2026-04-29 23:39 -29.89666 -51.41100 4883 ft 220 kts 175°
2026-04-29 23:39 -29.91137 -51.40609 4391 ft 219 kts 162°
2026-04-29 23:40 -29.92547 -51.40034 3883 ft 212 kts 163°
2026-04-29 23:40 -29.93924 -51.39492 3381 ft 207 kts 163°
2026-04-29 23:40 -29.95243 -51.38975 3176 ft 191 kts 163°
2026-04-29 23:40 -29.96468 -51.38496 3019 ft 187 kts 162°
2026-04-29 23:41 -29.97679 -51.37990 2883 ft 176 kts 152°
2026-04-29 23:41 -29.98468 -51.36960 2746 ft 178 kts 110°
2026-04-29 23:41 -29.98761 -51.35567 2565 ft 185 kts 100°
2026-04-29 23:41 -29.98958 -51.34101 2371 ft 182 kts 98°
2026-04-29 23:42 -29.99111 -51.32669 2178 ft 178 kts 94°
2026-04-29 23:42 -29.99177 -51.31267 2091 ft 175 kts 91°
2026-04-29 23:42 -29.99210 -51.29866 1951 ft 174 kts 90°
2026-04-29 23:42 -29.99237 -51.28508 1707 ft 164 kts 90°
2026-04-29 23:43 -29.99262 -51.27241 1492 ft 154 kts 90°
2026-04-29 23:43 -29.99286 -51.26000 1333 ft 156 kts 90°
2026-04-29 23:43 -29.99310 -51.24764 1127 ft 151 kts 91°
2026-04-29 23:43 -29.99334 -51.23561 919 ft 150 kts 91°
2026-04-29 23:44 -29.99357 -51.22386 717 ft 144 kts 91°
2026-04-29 23:44 -29.99380 -51.21247 537 ft 142 kts 91°
2026-04-29 23:44 -29.99400 -51.20110 352 ft 142 kts 91°
2026-04-29 23:44 -29.99422 -51.18975 155 ft 141 kts 92°
2026-04-29 23:45 -29.99447 -51.17851 31 ft 138 kts 91°
2026-04-29 23:45 -29.99468 -51.16871 23 ft 98 kts 91°
2026-04-29 23:45 -29.99479 -51.16322 29 ft 28 kts 91°
2026-04-29 23:45 -29.99431 -51.16237 30 ft 12 kts 14°
2026-04-29 23:46 -29.99405 -51.16234 27 ft 4 kts
2026-04-29 23:46 -29.99364 -51.16231 27 ft 8 kts
2026-04-29 23:46 -29.99295 -51.16273 26 ft 15 kts 296°
2026-04-29 23:46 -29.99287 -51.16398 24 ft 16 kts 271°
2026-04-29 23:47 -29.99286 -51.16521 24 ft 16 kts 272°
2026-04-29 23:47 -29.99283 -51.16647 24 ft 16 kts 271°
2026-04-29 23:47 -29.99280 -51.16772 23 ft 16 kts 271°
2026-04-29 23:47 -29.99277 -51.16898 23 ft 16 kts 271°
2026-04-29 23:48 -29.99275 -51.17024 27 ft 16 kts 271°
2026-04-29 23:48 -29.99272 -51.17149 27 ft 16 kts 271°
2026-04-29 23:48 -29.99269 -51.17275 25 ft 16 kts 271°
2026-04-29 23:48 -29.99257 -51.17390 27 ft 9 kts 303°
2026-04-29 23:49 -29.99195 -51.17404 26 ft 10 kts 350°
2026-04-29 23:49 -29.99170 -51.17468 26 ft 10 kts 257°
2026-04-29 23:49 -29.99174 -51.17556 27 ft 11 kts 289°
2026-04-29 23:49 -29.99114 -51.17596 25 ft 7 kts
2026-04-29 23:50 -29.99107 -51.17595 25 ft 0 kts